This demonstration page uses our WeatherBlox Daily Observations layout. Learn more.

Left ArrowRight Arrow

Hourly Observations for September 20, 2019

Temp ( °F °C ) Dew Point ( °F °C ) Humidity (%) Winds ( mph kmh ) Pressure ( in mb ) Visibility ( mi km ) Precip ( " mm )
12:53 am 00:53 Clear 70 21.1 54 12.2 57 57 ENE 7 11 30.21 1023 10 16 0.00 0.00
1:53 am 01:53 Partly Cloudy 69 20.6 53 11.7 57 57 E 8 13 30.22 1023 10 16 0.00 0.00
2:53 am 02:53 Mostly Clear 67 19.4 53 11.7 61 61 ENE 7 11 30.22 1023 10 16 0.00 0.00
3:53 am 03:53 Clear 66 18.9 54 12.2 65 65 ENE 7 11 30.22 1023 10 16 0.00 0.00
4:53 am 04:53 Clear 64 17.8 54 12.2 70 70 NE 3 6 30.22 1024 10 16 0.00 0.00
5:53 am 05:53 Clear 62 16.7 54 12.2 75 75 NE 3 6 30.23 1024 10 16 0.00 0.00
6:53 am 06:53 Clear 62 16.7 55 12.8 78 78 Calm 30.25 1024 10 16 0.00 0.00
7:53 am 07:53 Sunny 61 16.1 55 12.8 81 81 NE 3 6 30.28 1025 10 16 0.00 0.00
8:53 am 08:53 Sunny 65 18.3 55 12.8 70 70 VRB 5 7 30.28 1026 10 16 0.00 0.00
9:53 am 09:53 Sunny 69 20.6 52 11.1 55 55 E 6 9 30.29 1026 10 16 0.00 0.00
10:53 am 10:53 Sunny 72 22.2 51 10.6 48 48 ESE 7 11 30.30 1026 10 16 0.00 0.00
11:53 am 11:53 Sunny 74 23.3 50 10 43 43 VRB 5 7 30.30 1026 10 16 0.00 0.00
12:53 pm 12:53 Sunny 76 24.4 52 11.1 43 43 VRB 6 9 30.28 1026 10 16 0.00 0.00
1:53 pm 13:53 Sunny 78 25.6 51 10.6 39 39 ENE 8 13 30.26 1025 10 16 0.00 0.00
2:53 pm 14:53 Sunny 80 26.7 51 10.6 37 37 NE 10 17 30.23 1024 10 16 0.00 0.00
3:53 pm 15:53 Sunny 81 27.2 51 10.6 35 35 VRB 5 7 30.20 1023 10 16 0.00 0.00
4:53 pm 16:53 Sunny 82 27.8 52 11.1 35 35 undefined N/A 30.19 1023 10 16 0.00 0.00
5:53 pm 17:53 Sunny 82 27.8 51 10.6 34 34 VRB 7 11 30.19 1023 10 16 0.00 0.00
6:53 pm 18:53 Sunny 81 27.2 51 10.6 35 35 SE 6 9 30.20 1023 10 16 0.00 0.00
7:53 pm 19:53 Clear 78 25.6 49 9.4 36 36 ESE 3 6 30.21 1023 10 16 0.00 0.00
8:53 pm 20:53 Clear 77 25 49 9.4 37 37 ESE 3 6 30.22 1023 10 16 0.00 0.00
9:53 pm 21:53 Clear 65 18.3 54 12.2 68 68 Calm 30.23 1024 10 16 0.00 0.00
10:53 pm 22:53 Clear 63 17.2 55 12.8 76 76 Calm 30.25 1024 10 16 0.00 0.00
11:53 pm 23:53 Clear 62 16.7 55 12.8 78 78 N 3 6 30.26 1025 10 16 0.00 0.00

Powered by AerisWeather